map of DAD home
DAD - Airport
Location
City:  Da Nang, Vietnam
Name:Da Nang International Airport
ICAO:VVDN
IATA:DAD

Details
Type:Airport (Aerodrome, Airfield)
Use:Public/Civil, Military, International (customs port of entry)
Latitude:1602'38"N (16.043917)
Longitude:10811'58"E (108.199370)
Datum:WGS 1984
Elevation:33 ft (10 m)
Variation:1.14W (WMM2015 magnetic declination)
-0.04 annual change
Runways:2
Longest:10000 × 148 ft (3048 × 45 m), paved

Time
Time Zone:UTC+7
Local Time:

Weather
METAR:VVDN 230130Z 06006KT 6000 FEW015 BKN050 23/19 Q1023 NOSIG
TAF:VVDN 222300Z 2300/2324 02006KT 6000 SCT015 BKN050
TEMPO 2300/2304 4000 RA BR
TEMPO 2312/2324 4000 RA BR

Related Locations
Nearby:
Farthest:SPVR: 12447 mi / 20031 km
Vitor, ARE, PE

Find:

   beyond  
but within

Other Information
Maps:
NOTAMs:
Links:
Sources:

  
flag of Vietnam   

Airport Diagram

Airport diagram for DAD

Airport diagram (OBSOLETE) from NGA

Sectional Chart

Flight Planning
at skyvector.com

Satellite Image

Google Maps Satellite view

 

Copyright © 2004-2017 Karl L. Swartz. All rights reserved.
The Great Circle Mapper name and logo are trademarks of the Great Circle Mapper.
All other trademarks mentioned herein belong to their respective owners.
Please see credits for attibutions and further copyright information.

  Follow gcmap on Facebook Follow gcmap on Twitter Follow gcmap on Google+ GCmap on LinkedIn

hCard Microformat

Geo Microformat